Regional Weather Roundup
Issued by NWS

Home | Current Version | Previous Version | Text Only | Print | Product List | Glossary On
Versions: 1 2 3 4 5 6 7 8 9 10 11 12 13 14 15 16 17 18 19 20 21 22 23 24 25 26 27 28 29 30 31 32 33 34 35 36 37 38 39 40 41 42 43 44 45 46 47 48 49 50
000
ASUS43 KFSD 061010
RWRSD

WEATHER ROUNDUP FOR SOUTH DAKOTA
NATIONAL WEATHER SERVICE SIOUX FALLS SD
500 AM CDT WED JUL 06 2022

NOTE: "FAIR" INDICATES FEW OR NO CLOUDS BELOW 12,000 FEET WITH NO
SIGNIFICANT WEATHER AND/OR OBSTRUCTIONS TO VISIBILITY.


SDZ001>005-009-010-012>017-061100-
NORTHWEST AND NORTH CENTRAL SOUTH DAKOTA

CITY           SKY/WX    TMP DP  RH WIND       PRES   REMARKS
BUFFALO          N/A     66  61  84 E7        30.01S
MOBRIDGE       CLEAR     67  63  87 E12       29.98F
$$

SDZ012>016-024>037-041>051-057-063-072>074-061100-
SOUTHWEST AND SOUTH CENTRAL SOUTH DAKOTA

CITY           SKY/WX    TMP DP  RH WIND       PRES   REMARKS
RAPID CTY ARPT MOCLDY    63  62  97 NE6       30.05R
PIERRE         CLOUDY    68  68 100 E8        29.97R FOG
CUSTER         PTCLDY    58  54  86 NE3       30.15S
PHILIP         MOCLDY    65  65 100 NE5       30.01S
PINE RIDGE     MOCLDY    59  58  96 CALM      30.05R
SPEARFISH      FAIR      61  61 100 SE3       30.07R
WINNER         PTCLDY    68  66  93 CALM      29.97F
$$

SDZ004>011-016>023-039-040-061100-
NORTHEAST SOUTH DAKOTA

CITY           SKY/WX    TMP DP  RH WIND       PRES   REMARKS
ABERDEEN       PTCLDY    68  67  96 N5        29.99S
WATERTOWN      CLOUDY    66  66 100 NE3       29.99R FOG
BROOKINGS      CLOUDY    71  70  96 CALM      29.99S
SISSETON         N/A     69  66  90 CALM      29.99R
$$

SDZ017-020-022-023-036>040-048>070-061100-
SOUTHEAST SOUTH DAKOTA

CITY           SKY/WX    TMP DP  RH WIND       PRES   REMARKS
SIOUX FALLS    CLOUDY    72  69  90 E7        29.96S FOG
HURON          CLOUDY    69  68  96 NE6       29.96F FOG
CHAMBERLAIN    MOCLDY    66  66 100 CALM      29.96S
MADISON          N/A     70  70 100 E5        29.97F FOG
MITCHELL       CLOUDY    68  67  96 NE6       29.94F FOG
YANKTON        CLOUDY    69  68  96 CALM      29.94S
$$

ABBREVIATIONS USED IN REMARKS
   TC - TEMPERATURE IN CELSIUS
  WCI - WIND CHILL INDEX
   HX - HEAT INDEX
  VSB - VISIBILITY




USA.gov is the U.S. government's official web portal to all federal, state and local government web resources and services.